Time,TemperatureF,DewpointF,PressureIn,WindDirection,WindDirectionDegrees,WindSpeedMPH,WindSpeedGustMPH,Humidity,HourlyPrecipIn,Conditions,Clouds,dailyrainin,SoftwareType,DateUTC
2013-01-13 10:23:00,58.0,58.0,30.31,SE,136,2.0,-999.0,100,-99.99,,,-99.99,,2013-01-13 15:23:00,
2013-01-13 10:33:00,60.0,60.0,30.31,East,92,0.0,-999.0,100,-99.99,,,-99.99,,2013-01-13 15:33:00,
2013-01-13 10:43:00,60.0,60.0,30.31,East,92,0.0,-999.0,100,-99.99,,,-99.99,,2013-01-13 15:43:00,
2013-01-13 10:52:00,62.0,62.0,30.31,ENE,77,2.0,-999.0,100,-99.99,,,-99.99,,2013-01-13 15:52:00,
2013-01-13 11:03:00,63.0,61.0,30.30,ENE,58,1.0,-999.0,94,-99.99,,,-99.99,,2013-01-13 16:03:00,
2013-01-13 11:13:00,63.0,61.0,30.30,ENE,58,1.0,-999.0,94,-99.99,,,-99.99,,2013-01-13 16:13:00,
2013-01-13 11:23:00,64.0,62.0,30.29,SSE,163,1.0,-999.0,92,-99.99,,,-99.99,,2013-01-13 16:23:00,
2013-01-13 11:33:00,66.0,62.0,30.28,NE,44,2.0,-999.0,87,-99.99,,,-99.99,,2013-01-13 16:33:00,
2013-01-13 11:43:00,66.0,62.0,30.28,NE,44,2.0,-999.0,87,-99.99,,,-99.99,,2013-01-13 16:43:00,
2013-01-13 11:53:00,67.0,62.0,30.28,ENE,68,1.0,-999.0,85,-99.99,,,-99.99,,2013-01-13 16:53:00,
2013-01-13 12:03:00,68.0,63.0,30.27,East,82,2.0,-999.0,83,-99.99,,,-99.99,,2013-01-13 17:03:00,
2013-01-13 12:13:00,68.0,63.0,30.27,East,82,2.0,-999.0,83,-99.99,,,-99.99,,2013-01-13 17:13:00,
2013-01-13 12:22:00,69.0,63.0,30.25,North,11,2.0,-999.0,82,-99.99,,,-99.99,,2013-01-13 17:22:00,
2013-01-13 12:33:00,69.0,63.0,30.25,NNW,334,2.0,-999.0,80,-99.99,,,-99.99,,2013-01-13 17:33:00,
2013-01-13 12:43:00,69.0,63.0,30.25,NNW,334,2.0,-999.0,80,-99.99,,,-99.99,,2013-01-13 17:43:00,
2013-01-13 12:53:00,69.0,63.0,30.25,NNW,334,2.0,-999.0,80,-99.99,,,-99.99,,2013-01-13 17:53:00,
2013-01-13 13:03:00,71.0,63.0,30.24,ENE,62,1.0,-999.0,77,-99.99,,,-99.99,,2013-01-13 18:03:00,
2013-01-13 13:12:00,71.0,63.0,30.24,ENE,62,1.0,-999.0,77,-99.99,,,-99.99,,2013-01-13 18:12:00,
2013-01-13 13:23:00,71.0,63.0,30.23,East,101,2.0,-999.0,77,-99.99,,,-99.99,,2013-01-13 18:23:00,
2013-01-13 13:33:00,71.0,63.0,30.23,East,101,2.0,-999.0,77,-99.99,,,-99.99,,2013-01-13 18:33:00,
2013-01-13 13:43:00,71.0,63.0,30.23,East,101,2.0,-999.0,77,-99.99,,,-99.99,,2013-01-13 18:43:00,
2013-01-13 13:53:00,73.0,63.0,30.22,NE,53,3.0,-999.0,72,-99.99,,,-99.99,,2013-01-13 18:53:00,
2013-01-13 14:03:00,71.0,62.0,30.22,ESE,111,3.0,-999.0,74,-99.99,,,-99.99,,2013-01-13 19:03:00,
2013-01-13 14:12:00,71.0,62.0,30.22,ESE,111,3.0,-999.0,74,-99.99,,,-99.99,,2013-01-13 19:12:00,
2013-01-13 14:23:00,72.0,64.0,30.21,ESE,115,1.0,-999.0,75,-99.99,,,-99.99,,2013-01-13 19:23:00,
2013-01-13 14:33:00,73.0,64.0,30.21,ENE,75,3.0,-999.0,73,-99.99,,,-99.99,,2013-01-13 19:33:00,
2013-01-13 14:43:00,73.0,64.0,30.21,ENE,75,3.0,-999.0,73,-99.99,,,-99.99,,2013-01-13 19:43:00,
2013-01-13 14:53:00,72.0,63.0,30.21,NW,310,2.0,-999.0,74,-99.99,,,-99.99,,2013-01-13 19:53:00,
2013-01-13 15:03:00,72.0,63.0,30.21,NE,40,1.0,-999.0,74,-99.99,,,-99.99,,2013-01-13 20:03:00,
2013-01-13 15:12:00,72.0,63.0,30.21,NE,40,1.0,-999.0,74,-99.99,,,-99.99,,2013-01-13 20:12:00,
2013-01-13 15:22:00,72.0,63.0,30.22,SE,124,2.0,-999.0,73,-99.99,,,-99.99,,2013-01-13 20:22:00,
2013-01-13 15:33:00,72.0,62.0,30.22,ENE,76,2.0,-999.0,71,-99.99,,,-99.99,,2013-01-13 20:33:00,
2013-01-13 15:43:00,72.0,62.0,30.22,ENE,76,2.0,-999.0,71,-99.99,,,-99.99,,2013-01-13 20:43:00,
2013-01-13 15:53:00,72.0,62.0,30.22,NE,35,1.0,-999.0,72,-99.99,,,-99.99,,2013-01-13 20:53:00,
2013-01-13 16:03:00,71.0,62.0,30.22,North,355,0.0,-999.0,72,-99.99,,,-99.99,,2013-01-13 21:03:00,
2013-01-13 16:13:00,71.0,62.0,30.22,North,355,0.0,-999.0,72,-99.99,,,-99.99,,2013-01-13 21:13:00,
2013-01-13 16:23:00,71.0,62.0,30.22,North,355,1.0,-999.0,73,-99.99,,,-99.99,,2013-01-13 21:23:00,
2013-01-13 16:33:00,71.0,62.0,30.22,NNW,347,1.0,-999.0,73,-99.99,,,-99.99,,2013-01-13 21:33:00,
2013-01-13 16:43:00,71.0,62.0,30.22,NNW,347,1.0,-999.0,73,-99.99,,,-99.99,,2013-01-13 21:43:00,
2013-01-13 16:52:00,71.0,62.0,30.22,ENE,67,1.0,-999.0,73,-99.99,,,-99.99,,2013-01-13 21:52:00,
2013-01-13 17:03:00,70.0,61.0,30.23,SSE,154,1.0,-999.0,74,-99.99,,,-99.99,,2013-01-13 22:03:00,
2013-01-13 17:13:00,70.0,61.0,30.23,SSE,154,1.0,-999.0,74,-99.99,,,-99.99,,2013-01-13 22:13:00,
2013-01-13 17:22:00,70.0,61.0,30.22,NNE,18,1.0,-999.0,74,-99.99,,,-99.99,,2013-01-13 22:22:00,
2013-01-13 17:33:00,70.0,61.0,30.22,NE,40,0.0,-999.0,74,-99.99,,,-99.99,,2013-01-13 22:33:00,
2013-01-13 17:43:00,70.0,61.0,30.22,NE,40,0.0,-999.0,74,-99.99,,,-99.99,,2013-01-13 22:43:00,